EWG6YE EDDK-LQSA

Flight info

Callsign EWG6YE
Flight time 1h 36m
Altitude 35000
Route KUMIK6D KUMIK L603 TESGA DCT ESATI DCT DETEV DCT DINKU DCT BESNI DCT GOMIG DCT BEDOX DCT IRDIV DCT BOSNA
Aircraft A320/M-SDE3FGHIRWY/LB1

Departure

Time 2026-04-23 14:13
Airport Cologne Bonn Airport (EDDK)

Arrival

Time 2026-04-23 15:49
Airport Sarajevo International Airport (LQSA)
Time Latitude Longitude Altitude Speed Heading
2026-04-23 13:52 50.87907 7.12496 232 ft 0 kts 288°
2026-04-23 14:04 50.87902 7.12519 263 ft 4 kts 288°
2026-04-23 14:04 50.87894 7.12558 235 ft 4 kts 294°
2026-04-23 14:04 50.87880 7.12589 236 ft 4 kts 337°
2026-04-23 14:05 50.87855 7.12594 235 ft 4 kts 14°
2026-04-23 14:05 50.87838 7.12586 232 ft 0 kts 18°
2026-04-23 14:07 50.87839 7.12589 232 ft 1 kts 34°
2026-04-23 14:07 50.87817 7.12631 232 ft 10 kts 140°
2026-04-23 14:08 50.87745 7.12733 232 ft 16 kts 138°
2026-04-23 14:08 50.87664 7.12848 234 ft 15 kts 136°
2026-04-23 14:08 50.87603 7.12941 232 ft 9 kts 140°
2026-04-23 14:08 50.87586 7.12963 232 ft 0 kts 137°
2026-04-23 14:09 50.87574 7.12981 232 ft 8 kts 137°
2026-04-23 14:09 50.87497 7.13095 232 ft 22 kts 136°
2026-04-23 14:10 50.87358 7.13297 232 ft 31 kts 140°
2026-04-23 14:10 50.87190 7.13538 236 ft 28 kts 138°
2026-04-23 14:10 50.87052 7.13733 242 ft 25 kts 137°
2026-04-23 14:10 50.86940 7.13907 248 ft 19 kts 123°
2026-04-23 14:11 50.86912 7.14069 255 ft 12 kts 109°
2026-04-23 14:11 50.86868 7.14166 255 ft 10 kts 138°
2026-04-23 14:11 50.86819 7.14235 255 ft 9 kts 138°
2026-04-23 14:11 50.86777 7.14294 258 ft 12 kts 139°
2026-04-23 14:12 50.86695 7.14409 263 ft 13 kts 137°
2026-04-23 14:12 50.86636 7.14430 263 ft 9 kts 242°
2026-04-23 14:12 50.86633 7.14419 263 ft 0 kts 244°
2026-04-23 14:12 50.86577 7.14237 260 ft 58 kts 244°
2026-04-23 14:13 50.86280 7.13250 253 ft 137 kts 244°
2026-04-23 14:13 50.85853 7.11808 838 ft 144 kts 248°
2026-04-23 14:13 50.85422 7.10343 1482 ft 147 kts 248°
2026-04-23 14:13 50.84927 7.08816 1797 ft 165 kts 247°
2026-04-23 14:14 50.84356 7.07063 1972 ft 193 kts 244°
2026-04-23 14:14 50.83380 7.05490 2323 ft 217 kts 207°
2026-04-23 14:14 50.81806 7.05230 2605 ft 244 kts 169°
2026-04-23 14:14 50.80155 7.06090 3247 ft 253 kts 157°
2026-04-23 14:15 50.78537 7.07341 3858 ft 269 kts 141°
2026-04-23 14:15 50.77430 7.09727 4522 ft 273 kts 104°
2026-04-23 14:15 50.77266 7.12659 5387 ft 269 kts 82°
2026-04-23 14:15 50.77421 7.15600 6321 ft 270 kts 83°
2026-04-23 14:16 50.77535 7.18582 7143 ft 274 kts 84°
2026-04-23 14:16 50.77621 7.21613 7924 ft 278 kts 85°
2026-04-23 14:16 50.77691 7.24679 8722 ft 281 kts 85°
2026-04-23 14:16 50.77756 7.27794 9520 ft 286 kts 85°
2026-04-23 14:17 50.77817 7.30926 10294 ft 289 kts 85°
2026-04-23 14:17 50.77880 7.34162 10748 ft 304 kts 85°
2026-04-23 14:17 50.77952 7.37632 10946 ft 328 kts 85°
2026-04-23 14:17 50.78030 7.41355 11075 ft 350 kts 85°
2026-04-23 14:18 50.78082 7.43942 11286 ft 360 kts 86°
2026-04-23 14:18 50.78157 7.47934 11847 ft 366 kts 86°
2026-04-23 14:18 50.78225 7.51980 12508 ft 370 kts 86°
2026-04-23 14:18 50.78293 7.56055 13165 ft 374 kts 86°
2026-04-23 14:19 50.78448 7.60180 13838 ft 376 kts 79°
2026-04-23 14:19 50.78904 7.64265 14458 ft 378 kts 77°
2026-04-23 14:19 50.79372 7.68372 15052 ft 381 kts 78°
2026-04-23 14:19 50.79836 7.72514 15637 ft 384 kts 78°
2026-04-23 14:20 50.80300 7.76685 16234 ft 386 kts 78°
2026-04-23 14:20 50.80767 7.80887 16819 ft 389 kts 78°
2026-04-23 14:20 50.81236 7.85118 17403 ft 391 kts 78°
2026-04-23 14:20 50.81704 7.89377 17998 ft 394 kts 78°
2026-04-23 14:21 50.82174 7.93671 18580 ft 397 kts 78°
2026-04-23 14:21 50.82639 7.97928 19091 ft 399 kts 78°
2026-04-23 14:21 50.82888 8.02320 19619 ft 403 kts 89°
2026-04-23 14:21 50.82599 8.06743 20140 ft 407 kts 100°
2026-04-23 14:22 50.81774 8.11039 20651 ft 411 kts 111°
2026-04-23 14:22 50.80427 8.15047 21131 ft 415 kts 121°
2026-04-23 14:22 50.78818 8.18845 21609 ft 416 kts 122°
2026-04-23 14:22 50.77199 8.22657 22077 ft 418 kts 122°
2026-04-23 14:23 50.75578 8.26481 22533 ft 420 kts 122°
2026-04-23 14:23 50.73948 8.30319 22945 ft 422 kts 122°
2026-04-23 14:23 50.72315 8.34169 23365 ft 423 kts 122°
2026-04-23 14:23 50.70558 8.37907 23764 ft 426 kts 129°
2026-04-23 14:24 50.68416 8.41171 24121 ft 431 kts 139°
2026-04-23 14:24 50.65929 8.43836 24417 ft 436 kts 148°
2026-04-23 14:24 50.63239 8.46113 24700 ft 439 kts 149°
2026-04-23 14:24 50.60538 8.48388 25008 ft 441 kts 149°
2026-04-23 14:25 50.57826 8.50671 25323 ft 443 kts 149°
2026-04-23 14:25 50.55110 8.52956 25653 ft 444 kts 149°
2026-04-23 14:25 50.52384 8.55247 25970 ft 445 kts 149°
2026-04-23 14:25 50.49648 8.57548 26277 ft 446 kts 149°
2026-04-23 14:26 50.46917 8.59847 26577 ft 447 kts 148°
2026-04-23 14:26 50.44304 8.62476 26857 ft 445 kts 140°
2026-04-23 14:26 50.41986 8.65655 27125 ft 443 kts 133°
2026-04-23 14:26 50.39758 8.69045 27396 ft 445 kts 133°
2026-04-23 14:27 50.37528 8.72418 27647 ft 446 kts 133°
2026-04-23 14:27 50.35289 8.75789 27894 ft 447 kts 133°
2026-04-23 14:27 50.33067 8.79129 28133 ft 449 kts 133°
2026-04-23 14:27 50.30811 8.82513 28372 ft 449 kts 133°
2026-04-23 14:28 50.28558 8.85888 28718 ft 447 kts 133°
2026-04-23 14:28 50.26316 8.89243 29065 ft 446 kts 133°
2026-04-23 14:28 50.24077 8.92586 29401 ft 444 kts 133°
2026-04-23 14:28 50.21843 8.95918 29742 ft 443 kts 133°
2026-04-23 14:29 50.19621 8.99231 30074 ft 442 kts 133°
2026-04-23 14:29 50.17400 9.02541 30398 ft 440 kts 133°
2026-04-23 14:29 50.15184 9.05835 30686 ft 439 kts 133°
2026-04-23 14:29 50.12975 9.09115 30969 ft 438 kts 133°
2026-04-23 14:30 50.10776 9.12377 31258 ft 437 kts 133°
2026-04-23 14:30 50.08569 9.15642 31540 ft 436 kts 133°
2026-04-23 14:30 50.06365 9.18895 31792 ft 436 kts 133°
2026-04-23 14:30 50.04167 9.22141 32056 ft 435 kts 133°
2026-04-23 14:31 50.01980 9.25376 32341 ft 434 kts 133°
2026-04-23 14:31 49.99799 9.28602 32625 ft 432 kts 133°
2026-04-23 14:31 49.97619 9.31823 32906 ft 431 kts 133°
2026-04-23 14:31 49.95448 9.35023 33183 ft 430 kts 133°
2026-04-23 14:32 49.93276 9.38215 33462 ft 429 kts 133°
2026-04-23 14:32 49.91136 9.41355 33738 ft 428 kts 133°
2026-04-23 14:32 49.88975 9.44524 34013 ft 427 kts 133°
2026-04-23 14:32 49.86817 9.47683 34287 ft 426 kts 133°
2026-04-23 14:33 49.84663 9.50827 34531 ft 425 kts 133°
2026-04-23 14:33 49.82510 9.53966 34757 ft 425 kts 133°
2026-04-23 14:33 49.80354 9.57105 34956 ft 426 kts 132°
2026-04-23 14:33 49.78195 9.60244 35139 ft 426 kts 132°
2026-04-23 14:34 49.76033 9.63386 35281 ft 427 kts 133°
2026-04-23 14:34 49.73859 9.66540 35319 ft 430 kts 133°
2026-04-23 14:34 49.69491 9.72876 35317 ft 431 kts 133°
2026-04-23 14:35 49.65108 9.79203 35312 ft 431 kts 133°
2026-04-23 14:35 49.60716 9.85519 35309 ft 431 kts 133°
2026-04-23 14:36 49.56326 9.91829 35318 ft 431 kts 133°
2026-04-23 14:36 49.51933 9.98122 35313 ft 432 kts 132°
2026-04-23 14:37 49.47523 10.04429 35301 ft 433 kts 132°
2026-04-23 14:37 49.43129 10.10689 35299 ft 434 kts 132°
2026-04-23 14:38 49.38690 10.16998 35303 ft 434 kts 132°
2026-04-23 14:38 49.34249 10.23289 35312 ft 434 kts 132°
2026-04-23 14:39 49.29801 10.29582 35325 ft 435 kts 132°
2026-04-23 14:39 49.25344 10.35862 35331 ft 436 kts 132°
2026-04-23 14:40 49.20909 10.42185 35347 ft 435 kts 131°
2026-04-23 14:40 49.16584 10.48654 35346 ft 435 kts 130°
2026-04-23 14:41 49.12279 10.55156 35355 ft 435 kts 130°
2026-04-23 14:41 49.07945 10.61602 35354 ft 435 kts 131°
2026-04-23 14:42 49.03582 10.68027 35350 ft 436 kts 130°
2026-04-23 14:42 48.99211 10.74451 35347 ft 437 kts 130°
2026-04-23 14:43 48.94856 10.80838 35330 ft 438 kts 130°
2026-04-23 14:43 48.90466 10.87268 35319 ft 438 kts 130°
2026-04-23 14:44 48.86074 10.93689 35301 ft 438 kts 130°
2026-04-23 14:44 48.81678 11.00095 35305 ft 438 kts 130°
2026-04-23 14:45 48.77272 11.06492 35281 ft 439 kts 130°
2026-04-23 14:45 48.72855 11.12892 35272 ft 439 kts 130°
2026-04-23 14:46 48.68432 11.19285 35264 ft 440 kts 130°
2026-04-23 14:46 48.64296 11.26005 35272 ft 432 kts 119°
2026-04-23 14:47 48.61408 11.33854 35266 ft 426 kts 112°
2026-04-23 14:47 48.58704 11.41776 35279 ft 427 kts 112°
2026-04-23 14:48 48.55967 11.49744 35268 ft 427 kts 112°
2026-04-23 14:48 48.53227 11.57709 35267 ft 428 kts 112°
2026-04-23 14:49 48.50476 11.65668 35273 ft 428 kts 112°
2026-04-23 14:49 48.47718 11.73627 35289 ft 428 kts 112°
2026-04-23 14:50 48.44957 11.81589 35273 ft 429 kts 112°
2026-04-23 14:50 48.42185 11.89559 35266 ft 430 kts 112°
2026-04-23 14:51 48.39418 11.97463 35264 ft 430 kts 112°
2026-04-23 14:51 48.36629 12.05432 35266 ft 430 kts 112°
2026-04-23 14:52 48.33839 12.13404 35287 ft 431 kts 112°
2026-04-23 14:52 48.31031 12.21372 35278 ft 432 kts 112°
2026-04-23 14:53 48.28215 12.29338 35273 ft 432 kts 112°
2026-04-23 14:53 48.25386 12.37309 35268 ft 432 kts 112°
2026-04-23 14:54 48.22550 12.45267 35268 ft 433 kts 112°
2026-04-23 14:54 48.19712 12.53221 35271 ft 433 kts 112°
2026-04-23 14:55 48.16862 12.61174 35267 ft 433 kts 112°
2026-04-23 14:55 48.13945 12.69068 35263 ft 437 kts 118°
2026-04-23 14:56 48.10119 12.76167 35268 ft 442 kts 124°
2026-04-23 14:56 48.06134 12.83177 35270 ft 442 kts 124°
2026-04-23 14:57 48.02146 12.90197 35281 ft 443 kts 124°
2026-04-23 14:57 47.98160 12.97226 35262 ft 443 kts 124°
2026-04-23 14:58 47.94163 13.04234 35256 ft 443 kts 124°
2026-04-23 14:58 47.90155 13.11227 35255 ft 444 kts 124°
2026-04-23 14:59 47.86145 13.18214 35247 ft 444 kts 124°
2026-04-23 14:59 47.82152 13.25163 35269 ft 444 kts 124°
2026-04-23 15:00 47.78125 13.32146 35265 ft 445 kts 124°
2026-04-23 15:00 47.74092 13.39116 35262 ft 445 kts 124°
2026-04-23 15:01 47.70055 13.46083 35259 ft 445 kts 124°
2026-04-23 15:01 47.66022 13.53035 35241 ft 444 kts 124°
2026-04-23 15:02 47.61976 13.59988 35263 ft 447 kts 124°
2026-04-23 15:02 47.57905 13.66961 35242 ft 448 kts 124°
2026-04-23 15:03 47.53820 13.73934 35226 ft 449 kts 124°
2026-04-23 15:03 47.49730 13.80908 35213 ft 449 kts 124°
2026-04-23 15:04 47.45633 13.87871 35245 ft 449 kts 124°
2026-04-23 15:04 47.41514 13.94840 35206 ft 451 kts 125°
2026-04-23 15:05 47.38081 14.00634 35194 ft 451 kts 125°
2026-04-23 15:05 47.33271 14.08740 35178 ft 453 kts 125°
2026-04-23 15:06 47.29113 14.15745 35173 ft 454 kts 125°
2026-04-23 15:06 47.25614 14.21625 35196 ft 456 kts 125°
2026-04-23 15:07 47.21432 14.28633 35182 ft 456 kts 125°
2026-04-23 15:07 47.17268 14.35577 35171 ft 456 kts 126°
2026-04-23 15:08 47.13067 14.42562 35169 ft 456 kts 126°
2026-04-23 15:09 47.06753 14.53025 35196 ft 456 kts 126°
2026-04-23 15:09 47.02542 14.59991 35177 ft 456 kts 126°
2026-04-23 15:10 46.98332 14.66936 35167 ft 456 kts 126°
2026-04-23 15:10 46.94116 14.73877 35150 ft 456 kts 126°
2026-04-23 15:11 46.89902 14.80789 35136 ft 455 kts 126°
2026-04-23 15:11 46.85687 14.87697 35145 ft 455 kts 127°
2026-04-23 15:12 46.81462 14.94606 35128 ft 456 kts 127°
2026-04-23 15:12 46.77256 15.01458 35110 ft 456 kts 127°
2026-04-23 15:13 46.72992 15.08396 35107 ft 457 kts 127°
2026-04-23 15:13 46.68771 15.15233 35106 ft 457 kts 127°
2026-04-23 15:14 46.64503 15.22118 35122 ft 458 kts 128°
2026-04-23 15:14 46.60203 15.29047 35112 ft 465 kts 128°
2026-04-23 15:15 46.55854 15.36044 35139 ft 465 kts 128°
2026-04-23 15:15 46.51515 15.43004 35143 ft 463 kts 128°
2026-04-23 15:16 46.47189 15.49915 35153 ft 462 kts 128°
2026-04-23 15:16 46.42870 15.56807 35141 ft 461 kts 128°
2026-04-23 15:17 46.38555 15.63685 35131 ft 461 kts 128°
2026-04-23 15:17 46.34265 15.70499 35127 ft 460 kts 128°
2026-04-23 15:18 46.29937 15.77344 35118 ft 460 kts 129°
2026-04-23 15:18 46.25420 15.83909 35121 ft 464 kts 138°
2026-04-23 15:19 46.20275 15.89567 35114 ft 465 kts 139°
2026-04-23 15:19 46.15117 15.95192 35111 ft 465 kts 139°
2026-04-23 15:20 46.09965 16.00821 35108 ft 464 kts 139°
2026-04-23 15:20 46.04814 16.06435 35124 ft 464 kts 140°
2026-04-23 15:21 45.99692 16.12005 35125 ft 464 kts 140°
2026-04-23 15:21 45.94531 16.17591 35125 ft 464 kts 140°
2026-04-23 15:22 45.89363 16.23162 35120 ft 464 kts 140°
2026-04-23 15:22 45.84208 16.28727 35117 ft 464 kts 140°
2026-04-23 15:23 45.79058 16.34282 35133 ft 463 kts 140°
2026-04-23 15:23 45.73901 16.39822 35123 ft 463 kts 140°
2026-04-23 15:24 45.68742 16.45337 35114 ft 463 kts 140°
2026-04-23 15:24 45.63580 16.50843 35113 ft 463 kts 140°
2026-04-23 15:25 45.58416 16.56345 35110 ft 463 kts 140°
2026-04-23 15:25 45.53253 16.61830 35124 ft 463 kts 140°
2026-04-23 15:26 45.48087 16.67301 35117 ft 462 kts 140°
2026-04-23 15:26 45.42926 16.72770 35117 ft 462 kts 140°
2026-04-23 15:27 45.37763 16.78228 35111 ft 462 kts 140°
2026-04-23 15:27 45.32601 16.83671 35111 ft 462 kts 141°
2026-04-23 15:28 45.27470 16.89056 35129 ft 461 kts 141°
2026-04-23 15:28 45.22304 16.94458 35080 ft 461 kts 141°
2026-04-23 15:28 45.19725 16.97157 34832 ft 460 kts 141°
2026-04-23 15:29 45.17151 16.99851 34593 ft 460 kts 141°
2026-04-23 15:29 45.14595 17.02519 34350 ft 451 kts 141°
2026-04-23 15:29 45.12098 17.05117 34110 ft 440 kts 141°
2026-04-23 15:29 45.09658 17.07652 33839 ft 430 kts 141°
2026-04-23 15:30 45.07272 17.10137 33567 ft 423 kts 140°
2026-04-23 15:30 45.04902 17.12575 33308 ft 420 kts 141°
2026-04-23 15:30 45.02510 17.14917 33039 ft 418 kts 143°
2026-04-23 15:30 45.00098 17.17193 32773 ft 416 kts 143°
2026-04-23 15:31 44.97675 17.19438 32523 ft 420 kts 143°
2026-04-23 15:31 44.95183 17.21748 32258 ft 436 kts 143°
2026-04-23 15:31 44.92603 17.24153 32011 ft 451 kts 143°
2026-04-23 15:31 44.89953 17.26640 31755 ft 464 kts 143°
2026-04-23 15:32 44.87240 17.29198 31501 ft 475 kts 143°
2026-04-23 15:32 44.84467 17.31812 31250 ft 483 kts 143°
2026-04-23 15:32 44.81649 17.34467 31014 ft 490 kts 143°
2026-04-23 15:33 44.76081 17.39697 31238 ft 447 kts 143°
2026-04-23 15:33 44.73594 17.42000 31364 ft 417 kts 143°
2026-04-23 15:33 44.71164 17.44249 30524 ft 417 kts 143°
2026-04-23 15:33 44.68754 17.46498 29576 ft 413 kts 143°
2026-04-23 15:34 44.66379 17.48723 28591 ft 408 kts 143°
2026-04-23 15:34 44.64029 17.50927 27655 ft 404 kts 143°
2026-04-23 15:34 44.61734 17.53079 26742 ft 400 kts 143°
2026-04-23 15:34 44.59430 17.55233 25876 ft 396 kts 143°
2026-04-23 15:35 44.57143 17.57364 25009 ft 393 kts 143°
2026-04-23 15:35 44.54877 17.59468 24192 ft 389 kts 143°
2026-04-23 15:35 44.52627 17.61551 23307 ft 386 kts 143°
2026-04-23 15:35 44.50393 17.63615 22366 ft 383 kts 142°
2026-04-23 15:36 44.48184 17.65657 21430 ft 380 kts 142°
2026-04-23 15:36 44.45972 17.67708 20404 ft 381 kts 142°
2026-04-23 15:36 44.43771 17.69754 19426 ft 380 kts 142°
2026-04-23 15:36 44.41565 17.71802 18483 ft 380 kts 141°
2026-04-23 15:37 44.39401 17.73801 18088 ft 362 kts 141°
2026-04-23 15:37 44.37337 17.75790 16402 ft 368 kts 135°
2026-04-23 15:37 44.36101 17.77489 15299 ft 379 kts 126°
2026-04-23 15:37 44.33859 17.81174 14594 ft 359 kts 127°
2026-04-23 15:38 44.32257 17.83712 14363 ft 338 kts 127°
2026-04-23 15:38 44.30713 17.86135 14131 ft 331 kts 127°
2026-04-23 15:38 44.29222 17.88482 13897 ft 316 kts 127°
2026-04-23 15:38 44.27776 17.90773 13470 ft 316 kts 127°
2026-04-23 15:39 44.26358 17.93030 13229 ft 311 kts 126°
2026-04-23 15:39 44.24935 17.95293 12839 ft 310 kts 126°
2026-04-23 15:39 44.23512 17.97557 12457 ft 309 kts 127°
2026-04-23 15:39 44.22097 17.99806 12090 ft 308 kts 127°
2026-04-23 15:40 44.20685 18.02055 11700 ft 308 kts 126°
2026-04-23 15:40 44.19293 18.04365 11321 ft 306 kts 125°
2026-04-23 15:40 44.17957 18.06660 10952 ft 305 kts 124°
2026-04-23 15:40 44.16638 18.08948 10339 ft 303 kts 125°
2026-04-23 15:41 44.15025 18.10867 9516 ft 312 kts 151°
2026-04-23 15:41 44.12985 18.11711 8948 ft 308 kts 177°
2026-04-23 15:41 44.10950 18.11174 8573 ft 292 kts 205°
2026-04-23 15:41 44.09235 18.09818 8259 ft 275 kts 218°
2026-04-23 15:42 44.07683 18.08373 7931 ft 262 kts 212°
2026-04-23 15:42 44.06085 18.07255 7629 ft 252 kts 206°
2026-04-23 15:42 44.04489 18.06348 7350 ft 243 kts 202°
2026-04-23 15:42 44.02920 18.05583 7070 ft 235 kts 200°
2026-04-23 15:43 44.01375 18.04951 6827 ft 226 kts 197°
2026-04-23 15:43 43.99878 18.04456 6654 ft 219 kts 194°
2026-04-23 15:43 43.98392 18.04060 6398 ft 216 kts 191°
2026-04-23 15:43 43.96905 18.03757 6169 ft 217 kts 188°
2026-04-23 15:44 43.95399 18.03572 5951 ft 217 kts 179°
2026-04-23 15:44 43.93959 18.04057 5723 ft 213 kts 149°
2026-04-23 15:44 43.92846 18.05351 5505 ft 206 kts 117°
2026-04-23 15:44 43.92168 18.07074 5306 ft 202 kts 109°
2026-04-23 15:45 43.91527 18.08811 5124 ft 203 kts 110°
2026-04-23 15:45 43.90885 18.10546 5020 ft 202 kts 111°
2026-04-23 15:45 43.90239 18.12285 4927 ft 204 kts 111°
2026-04-23 15:45 43.89595 18.14014 4663 ft 200 kts 111°
2026-04-23 15:46 43.88959 18.15725 4358 ft 200 kts 114°
2026-04-23 15:46 43.88326 18.17426 4072 ft 197 kts 115°
2026-04-23 15:46 43.87704 18.19095 3804 ft 193 kts 116°
2026-04-23 15:46 43.87094 18.20732 3547 ft 189 kts 115°
2026-04-23 15:47 43.86496 18.22335 3304 ft 187 kts 112°
2026-04-23 15:47 43.85901 18.23932 3049 ft 182 kts 112°
2026-04-23 15:47 43.85338 18.25432 2816 ft 167 kts 110°
2026-04-23 15:47 43.84827 18.26796 2566 ft 154 kts 110°
2026-04-23 15:48 43.84346 18.28092 2353 ft 151 kts 114°
2026-04-23 15:48 43.83872 18.29368 2107 ft 149 kts 114°
2026-04-23 15:48 43.83394 18.30650 1862 ft 149 kts 114°
2026-04-23 15:48 43.82905 18.31955 1687 ft 153 kts 116°
2026-04-23 15:49 43.82469 18.33134 1688 ft 116 kts 118°
2026-04-23 15:49 43.82174 18.33910 1702 ft 66 kts 117°
2026-04-23 15:49 43.82028 18.34290 1709 ft 35 kts 117°
2026-04-23 15:49 43.81945 18.34517 1714 ft 13 kts 116°
2026-04-23 15:50 43.81972 18.34590 1716 ft 7 kts 51°
2026-04-23 15:50 43.82008 18.34623 1715 ft 6 kts 19°
2026-04-23 15:50 43.82068 18.34613 1714 ft 11 kts 330°
2026-04-23 15:50 43.82124 18.34517 1711 ft 15 kts 297°
2026-04-23 15:51 43.82179 18.34371 1707 ft 19 kts 296°
2026-04-23 15:51 43.82222 18.34254 1704 ft 21 kts 297°
2026-04-23 15:51 43.82265 18.34142 1702 ft 9 kts 298°
2026-04-23 15:51 43.82301 18.34047 1698 ft 14 kts 298°
2026-04-23 15:52 43.82352 18.33906 1691 ft 19 kts 296°
2026-04-23 15:52 43.82421 18.33727 1687 ft 19 kts 298°
2026-04-23 15:52 43.82456 18.33630 1685 ft 9 kts 297°
2026-04-23 15:52 43.82488 18.33546 1692 ft 10 kts 298°
2026-04-23 15:53 43.82523 18.33450 1684 ft 12 kts 296°
2026-04-23 15:53 43.82526 18.33444 1682 ft 0 kts 296°
2026-04-23 15:53 43.82531 18.33428 1687 ft 6 kts 296°
2026-04-23 15:53 43.82564 18.33394 1681 ft 6 kts 28°
2026-04-23 15:54 43.82584 18.33410 1677 ft 0 kts 28°
2026-04-23 15:54 43.82592 18.33417 1684 ft 2 kts 36°
2026-04-23 15:54 43.82599 18.33442 1679 ft 1 kts 75°
2026-04-23 15:54 43.82603 18.33470 1683 ft 0 kts 77°
2026-04-23 15:55 43.82604 18.33472 1683 ft 1 kts 77°
2026-04-23 15:55 43.82604 18.33476 1682 ft 2 kts 78°
2026-04-23 15:55 43.82605 18.33484 1681 ft 0 kts 77°
2026-04-23 15:57 43.82604 18.33472 1679 ft 0 kts 77°